"Pseudo-MPEC" for ST26H93

Created 2026 Aug 26 0:35:12 UT using Find_Orb

Click here for an explanation of pseudo-MPECs

 
 Astrometry: 
     ST26H93 0C2026 08 25.32358400 17 20.844+25 18 32.86   ~8Q05 17.40rUNEOCPI41
     ST26H93 0C2026 08 25.32393100 17 20.293+25 18 26.91   ~8Q05 17.40rUNEOCPI41
     ST26H93* C2026 08 25.37297500 16 13.862+25 02 50.64   ~8P9o 17.01GVNEOCPU68
     ST26H93  C2026 08 25.37631600 16 09.284+25 01 59.79   ~8P9o 17.01GVNEOCPU68
     ST26H93 KB2026 08 25.53512800 12 36.229+24 17 43.64   ~8PEKx19.4 GXNEOCPQ06
     ST26H93 KB2026 08 25.54076800 12 28.519+24 16 10.44   ~8PEKx19.3 GXNEOCPQ06
     ST26H93 KB2026 08 25.54640800 12 20.871+24 14 36.67   ~8PEKx18.9 GXNEOCPQ06

Station data:
(I41) Palomar Mountain--ZTF  (N33.357336 W116.859780)  US/California.
   Observers B. T. Bolin, Z. T. F. Collaboration. Measurers B. T. Bolin,
   Z.-Y. Lin, F. J. Masci. 1.2-m f/2.4 Schmidt.
(Q06) Tarui Observatory, Tarui  (N35.394791 E136.495470)  Japan.  Observer H.
   Watanabe. 0.35-m f/1.9 Schmidt-Cassegrain + CMO.
(U68) JPL SynTrack Robotic Telescope, Auberry  (N37.070387 W119.412990)
   US/California.  Observers N. Saini, C. Zhai, R. Trahan, M. Zhan, M. Shao.
   0.28-m f/2.2 Schmidt + CCD.

Orbital elements:  ST26H93
   Perigee 2026 Aug 24.533572 +/- 0.201 TT = 12:48:20.6 (JD 2461277.033572)
Epoch 2026 Aug 25.0 TT = JDT 2461277.5                           AutoNEOCP
q 32743.74080 +/- 8376              (J2000 equator)
H   27.98 G 0.15                    Peri.   56.414655 +/- 4.7
                                    Node   175.940469 +/- 1.7
e   4.97814985 +/- 2.45             Incl.  106.387905 +/- 3.4
4 of 7 observations 2026 Aug. 25 (75.9 min); mean residual 0".19
Residuals in arcseconds: 
260825 I41  .27+  .25+    260825 U68  .05-  .00     260825 Q06(3257-  244-)   
260825 I41  .27-  .25-    260825 Q06(3169-  142-)   
260825 U68  .06+  .00     260825 Q06(3214-  193-)   

Ephemerides (geocentric):
Date (UTC) HH   RA             Dec           delta  r     elong  mag " sig PA
---- --------  ------------   ------------  ------ ------ -----  --- --------
2026 08 26 01  00 12 59.183   +23 23 54.28  931267 1.0151 135.8 18.7  533   5
2026 08 26 02  00 12 53.958   +23 20 11.96  956511 1.0152 135.9 18.7  571   5
2026 08 26 03  00 12 49.004   +23 16 40.99  981750 1.0154 136.0 18.8  608   6
2026 08 26 04  00 12 44.298   +23 13 20.52  .00673 1.0155 136.1 18.8  644   6
2026 08 26 05  00 12 39.823   +23 10 09.77  .00690 1.0156 136.2 18.9  680   6
2026 08 26 06  00 12 35.561   +23 07 08.05  .00707 1.0157 136.3 18.9  714   6
2026 08 26 07  00 12 31.497   +23 04 14.72  .00724 1.0158 136.4 19.0  747   7
2026 08 26 08  00 12 27.617   +23 01 29.20  .00741 1.0160 136.4 19.0  780   7
2026 08 26 09  00 12 23.908   +22 58 50.97  .00757 1.0161 136.5 19.1  811   7
2026 08 26 10  00 12 20.360   +22 56 19.55  .00774 1.0162 136.6 19.1  842   7
2026 08 26 11  00 12 16.960   +22 53 54.50  .00791 1.0163 136.7 19.2  872   7
2026 08 26 12  00 12 13.700   +22 51 35.43  .00808 1.0164 136.7 19.2  901   7
2026 08 26 13  00 12 10.571   +22 49 21.96  .00825 1.0166 136.8 19.3  929   8
2026 08 26 14  00 12 07.565   +22 47 13.75  .00842 1.0167 136.9 19.3  956   8
2026 08 26 15  00 12 04.674   +22 45 10.49  .00859 1.0168 137.0 19.3  983   8
2026 08 26 16  00 12 01.891   +22 43 11.90  .00875 1.0169 137.0 19.4 1009   8
2026 08 26 17  00 11 59.210   +22 41 17.70  .00892 1.0170 137.1 19.4 1034   8
2026 08 26 18  00 11 56.625   +22 39 27.65  .00909 1.0172 137.1 19.5 1059   8
2026 08 26 19  00 11 54.130   +22 37 41.53  .00926 1.0173 137.2 19.5 1083   8
2026 08 26 20  00 11 51.722   +22 35 59.11  .00943 1.0174 137.3 19.5 1106   8
2026 08 26 21  00 11 49.394   +22 34 20.21  .00960 1.0175 137.3 19.6 1129   8
2026 08 26 22  00 11 47.142   +22 32 44.63  .00976 1.0177 137.4 19.6 1151   8
2026 08 26 23  00 11 44.963   +22 31 12.21  .00993 1.0178 137.5 19.6 1172   8
2026 08 27 00  00 11 42.852   +22 29 42.79  .01010 1.0179 137.5 19.7 1193   9
2026 08 27 01  00 11 40.807   +22 28 16.21  .01027 1.0180 137.6 19.7 1214   9
2026 08 27 02  00 11 38.823   +22 26 52.35  .01044 1.0181 137.6 19.8 1233   9
2026 08 27 03  00 11 36.898   +22 25 31.06  .01061 1.0183 137.7 19.8 1253   9
2026 08 27 04  00 11 35.028   +22 24 12.22  .01077 1.0184 137.7 19.8 1272   9
2026 08 27 05  00 11 33.212   +22 22 55.73  .01094 1.0185 137.8 19.9 1290   9
2026 08 27 06  00 11 31.446   +22 21 41.46  .01111 1.0186 137.9 19.9 1308   9
2026 08 27 07  00 11 29.728   +22 20 29.33  .01128 1.0188 137.9 19.9 1326   9
2026 08 27 08  00 11 28.055   +22 19 19.23  .01145 1.0189 138.0 19.9 1343   9
2026 08 27 09  00 11 26.427   +22 18 11.07  .01161 1.0190 138.0 20.0 1360   9
2026 08 27 10  00 11 24.840   +22 17 04.78  .01178 1.0191 138.1 20.0 1376   9
2026 08 27 11  00 11 23.293   +22 16 00.26  .01195 1.0193 138.1 20.0 1392   9
2026 08 27 12  00 11 21.783   +22 14 57.44  .01212 1.0194 138.2 20.1 1408   9
2026 08 27 13  00 11 20.310   +22 13 56.26  .01229 1.0195 138.2 20.1 1423   9
2026 08 27 14  00 11 18.872   +22 12 56.64  .01246 1.0196 138.3 20.1 1438   9
2026 08 27 15  00 11 17.467   +22 11 58.52  .01262 1.0198 138.3 20.1 1452   9
2026 08 27 16  00 11 16.093   +22 11 01.84  .01279 1.0199 138.4 20.2 1467   9
2026 08 27 17  00 11 14.750   +22 10 06.55  .01296 1.0200 138.4 20.2 1481   9
2026 08 27 18  00 11 13.437   +22 09 12.58  .01313 1.0201 138.5 20.2 1494   9
2026 08 27 19  00 11 12.151   +22 08 19.88  .01330 1.0203 138.5 20.3 1508   9
2026 08 27 20  00 11 10.891   +22 07 28.41  .01346 1.0204 138.6 20.3 1521   9
2026 08 27 21  00 11 09.658   +22 06 38.12  .01363 1.0205 138.6 20.3 1533   9
2026 08 27 22  00 11 08.449   +22 05 48.96  .01380 1.0206 138.7 20.3 1546   9
2026 08 27 23  00 11 07.263   +22 05 00.90  .01397 1.0208 138.7 20.4 1558   9
2026 08 28 00  00 11 06.100   +22 04 13.89  .01414 1.0209 138.8 20.4 1570  10